Location: Mentone
(34.5413°N, 85.5351°W)
Time: 21:36:04
(UTC-05:00)

S-56A Canister/Altair - Visible Passes

Search period start: 23 August 2016 00:00
Search period end: 02 September 2016 00:00
Orbit: 640 x 2494 km, 38.9° (Epoch: 23 August)

Date Brightness Start Highest point End Pass type
(mag) Time Alt. Az. Time Alt. Az. Time Alt. Az.
23 Aug 10.0 01:51:01 51° ESE 01:51:01 51° ESE 02:01:19 10° ENE visible
23 Aug 9.5 03:48:26 37° WSW 03:55:35 87° NNW 04:06:19 10° ENE visible
24 Aug 10.3 01:19:58 42° ESE 01:19:58 42° ESE 01:28:30 10° ENE visible
24 Aug 9.6 03:17:23 50° WSW 03:22:26 89° SSE 03:33:50 10° ENE visible
24 Aug 9.6 05:15:43 10° W 05:29:14 71° N 05:38:22 10° E visible
25 Aug 10.6 00:48:54 32° E 00:48:54 32° E 00:55:34 10° ENE visible
25 Aug 9.6 02:46:19 65° SW 02:49:14 85° SSE 03:01:18 10° ENE visible
25 Aug 9.6 04:43:44 14° W 04:56:12 72° N 05:06:01 10° E visible
26 Aug 10.9 00:17:48 24° E 00:17:48 24° E 00:22:30 10° ENE visible
26 Aug 9.6 02:15:12 79° SSW 02:16:00 81° SSE 02:28:39 10° ENE visible
26 Aug 9.7 04:12:37 22° W 04:23:06 73° N 04:33:36 10° ENE visible
26 Aug 11.2 23:46:41 17° E 23:46:41 17° E 23:49:18 10° ENE visible
27 Aug 9.8 01:44:05 73° ESE 01:44:05 73° ESE 01:55:55 10° ENE visible
27 Aug 9.7 03:41:30 32° W 03:49:54 75° N 04:01:06 10° ENE visible
27 Aug 9.5 05:43:28 10° WNW 05:56:52 79° NNE 06:05:47 10° E visible
27 Aug 11.4 23:15:32 11° E 23:15:32 11° E 23:15:55 10° E visible
28 Aug 10.0 01:12:56 58° E 01:12:56 58° E 01:23:07 10° ENE visible
28 Aug 9.8 03:10:21 43° W 03:16:39 77° N 03:28:32 10° ENE visible
28 Aug 9.6 05:09:54 10° WNW 05:23:53 77° N 05:33:27 10° E visible
29 Aug 10.3 00:41:47 45° E 00:41:47 45° E 00:50:11 10° ENE visible
29 Aug 9.8 02:39:11 57° W 02:43:20 79° NNW 02:55:53 10° ENE visible
29 Aug 9.7 04:36:35 11° WNW 04:50:48 75° N 05:01:03 10° E visible
29 Aug11.522:13:12ENE22:13:12ENE21:44:31Svisible
30 Aug 10.7 00:10:36 34° E 00:10:36 34° E 00:17:10 10° ENE visible
30 Aug 9.8 02:08:01 73° W 02:09:58 82° NNW 02:23:10 10° ENE visible
30 Aug 9.8 04:05:25 18° WNW 04:17:38 74° N 04:28:34 10° E visible
30 Aug 11.0 23:39:26 25° ENE 23:39:26 25° ENE 23:44:03 10° ENE visible
31 Aug 9.8 01:36:51 85° N 01:36:51 85° N 01:50:21 10° ENE visible
31 Aug 9.8 03:34:15 26° WNW 03:44:23 74° N 03:56:01 10° E visible
31 Aug 9.5 05:37:24 10° WNW 05:51:12 82° SSW 06:00:35 10° ESE visible
31 Aug 11.0 20:45:05 10° SSE 20:45:55 11° SSE 20:45:55 11° SSE visible
31 Aug 11.2 23:08:17 17° ENE 23:08:17 17° ENE 23:10:48 10° ENE visible
01 Sep 9.9 01:05:41 70° ENE 01:05:41 70° ENE 01:17:27 10° ENE visible
01 Sep 9.9 03:03:06 35° WNW 03:11:03 74° N 03:23:21 10° E visible
01 Sep 9.5 05:03:52 10° WNW 05:18:15 87° SSW 05:28:17 10° ESE visible
01 Sep 10.9 20:14:34 10° SSE 20:16:53 12° SE 20:16:53 12° SE visible
01 Sep 10.8 22:11:20 10° SSW 22:37:09 11° ENE 22:37:27 10° ENE visible
